SYL455 URSS-UNOO

Flight info

Callsign SYL455
Flight time N/A
Altitude 37000
Route IRGID1S IRGID A944 GUBOR G487 ERSAR DCT BEMES DCT ITAKA/K0846F390 N154 AKT P574 OGANU N55 DAKIN N990 ALODA ALODA5A
Aircraft B737/M-SDE2E3FGHIRWXY/LB1

Departure

Time N/A
Airport Sochi International Airport (URSS)

Arrival

Time 2026-04-21 10:52
Airport Omsk Central Airport (UNOO)
Time Latitude Longitude Altitude Speed Heading
2026-04-21 09:51 50.76269 64.38243 36792 ft 485 kts 51°
2026-04-21 09:51 50.78303 64.42492 36792 ft 485 kts 51°
2026-04-21 09:52 50.82366 64.51002 36792 ft 484 kts 51°
2026-04-21 09:52 50.86421 64.59524 36790 ft 484 kts 51°
2026-04-21 09:53 50.90469 64.68056 36789 ft 484 kts 51°
2026-04-21 09:53 50.94508 64.76598 36790 ft 484 kts 51°
2026-04-21 09:54 50.98534 64.85141 36786 ft 483 kts 51°
2026-04-21 09:54 51.02533 64.93655 36791 ft 483 kts 51°
2026-04-21 09:55 51.06541 65.02215 36788 ft 483 kts 52°
2026-04-21 09:55 51.10551 65.10809 36789 ft 483 kts 52°
2026-04-21 09:56 51.14533 65.19371 36792 ft 482 kts 52°
2026-04-21 09:56 51.18495 65.27917 36792 ft 482 kts 52°
2026-04-21 09:57 51.22472 65.36526 36788 ft 482 kts 52°
2026-04-21 09:57 51.26440 65.45141 36794 ft 482 kts 52°
2026-04-21 09:58 51.30403 65.53776 36789 ft 481 kts 52°
2026-04-21 09:58 51.34354 65.62413 36791 ft 481 kts 52°
2026-04-21 09:59 51.38299 65.71065 36788 ft 481 kts 52°
2026-04-21 09:59 51.42231 65.79718 36789 ft 480 kts 52°
2026-04-21 10:00 51.46166 65.88406 36790 ft 480 kts 52°
2026-04-21 10:00 51.50057 65.97026 36791 ft 480 kts 53°
2026-04-21 10:01 51.53967 66.05718 36787 ft 480 kts 53°
2026-04-21 10:01 51.57870 66.14421 36799 ft 479 kts 53°
2026-04-21 10:02 51.63711 66.27503 36795 ft 480 kts 53°
2026-04-21 10:03 51.67597 66.36244 36792 ft 480 kts 53°
2026-04-21 10:03 51.71471 66.44988 36794 ft 479 kts 53°
2026-04-21 10:04 51.75346 66.53763 36795 ft 479 kts 53°
2026-04-21 10:04 51.79187 66.62490 36802 ft 480 kts 53°
2026-04-21 10:05 51.83054 66.71308 36793 ft 480 kts 53°
2026-04-21 10:05 51.86908 66.80124 36796 ft 479 kts 53°
2026-04-21 10:06 51.90745 66.88932 36801 ft 479 kts 53°
2026-04-21 10:06 51.94576 66.97757 36800 ft 479 kts 54°
2026-04-21 10:07 51.98365 67.06515 36800 ft 478 kts 54°
2026-04-21 10:07 52.02183 67.15371 36796 ft 478 kts 54°
2026-04-21 10:08 52.05992 67.24236 36798 ft 478 kts 54°
2026-04-21 10:08 52.09791 67.33107 36795 ft 478 kts 54°
2026-04-21 10:09 52.13586 67.42003 36796 ft 478 kts 54°
2026-04-21 10:09 52.17369 67.50898 36804 ft 478 kts 54°
2026-04-21 10:10 52.21162 67.59789 36789 ft 478 kts 53°
2026-04-21 10:10 52.25040 67.68541 36796 ft 478 kts 52°
2026-04-21 10:11 52.28954 67.77315 36797 ft 477 kts 53°
2026-04-21 10:11 52.32849 67.86112 36797 ft 477 kts 53°
2026-04-21 10:12 52.36721 67.94921 36802 ft 477 kts 53°
2026-04-21 10:12 52.40560 68.03696 36793 ft 477 kts 53°
2026-04-21 10:13 52.44415 68.12538 36800 ft 476 kts 53°
2026-04-21 10:13 52.48263 68.21395 36802 ft 476 kts 53°
2026-04-21 10:14 52.52107 68.30270 36806 ft 477 kts 53°
2026-04-21 10:14 52.55949 68.39171 36800 ft 477 kts 53°
2026-04-21 10:15 52.59782 68.48085 36808 ft 477 kts 53°
2026-04-21 10:15 52.63612 68.57021 36797 ft 478 kts 53°
2026-04-21 10:16 52.67410 68.65914 36801 ft 478 kts 53°
2026-04-21 10:16 52.71229 68.74886 36802 ft 478 kts 53°
2026-04-21 10:17 52.75044 68.83884 36804 ft 478 kts 53°
2026-04-21 10:17 52.78851 68.92893 36805 ft 478 kts 53°
2026-04-21 10:18 52.82652 69.01918 36806 ft 478 kts 53°
2026-04-21 10:18 52.86443 69.10953 36805 ft 478 kts 53°
2026-04-21 10:19 52.90230 69.20012 36809 ft 478 kts 53°
2026-04-21 10:19 52.94016 69.29099 36808 ft 478 kts 53°
2026-04-21 10:20 52.97789 69.38188 36814 ft 478 kts 53°
2026-04-21 10:20 53.01529 69.47229 36810 ft 478 kts 53°
2026-04-21 10:21 53.05291 69.56356 36810 ft 478 kts 53°
2026-04-21 10:21 53.09043 69.65491 36809 ft 478 kts 53°
2026-04-21 10:22 53.12789 69.74646 36809 ft 478 kts 53°
2026-04-21 10:22 53.16530 69.83822 36811 ft 478 kts 53°
2026-04-21 10:23 53.19637 69.91467 36811 ft 479 kts 54°
2026-04-21 10:23 53.23364 70.00670 36807 ft 479 kts 54°
2026-04-21 10:24 53.27083 70.09887 36818 ft 479 kts 54°
2026-04-21 10:24 53.30800 70.19131 36822 ft 479 kts 54°
2026-04-21 10:25 53.34512 70.28397 36825 ft 479 kts 54°
2026-04-21 10:25 53.38192 70.37616 36820 ft 479 kts 54°
2026-04-21 10:26 53.41890 70.46915 36829 ft 479 kts 54°
2026-04-21 10:26 53.45580 70.56230 36826 ft 479 kts 54°
2026-04-21 10:27 53.49247 70.65520 36830 ft 480 kts 54°
2026-04-21 10:27 53.52927 70.74876 36828 ft 480 kts 54°
2026-04-21 10:28 53.56606 70.84267 36836 ft 480 kts 54°
2026-04-21 10:28 53.60272 70.93658 36833 ft 480 kts 54°
2026-04-21 10:28 53.62105 70.98367 36707 ft 481 kts 54°
2026-04-21 10:29 53.63922 71.03041 36116 ft 480 kts 54°
2026-04-21 10:29 53.65743 71.07738 35484 ft 476 kts 54°
2026-04-21 10:29 53.67548 71.12403 34778 ft 474 kts 54°
2026-04-21 10:29 53.69346 71.17057 34061 ft 473 kts 54°
2026-04-21 10:30 53.71135 71.21697 33425 ft 468 kts 54°
2026-04-21 10:30 53.72895 71.26274 32846 ft 462 kts 54°
2026-04-21 10:30 53.74633 71.30799 32316 ft 456 kts 54°
2026-04-21 10:30 53.76346 71.35266 31811 ft 449 kts 54°
2026-04-21 10:31 53.78032 71.39673 31300 ft 444 kts 54°
2026-04-21 10:31 53.79700 71.44037 30804 ft 439 kts 54°
2026-04-21 10:31 53.81347 71.48354 30316 ft 434 kts 54°
2026-04-21 10:31 53.82974 71.52623 29822 ft 429 kts 54°
2026-04-21 10:32 53.84581 71.56850 29265 ft 425 kts 54°
2026-04-21 10:32 53.86170 71.61037 28762 ft 421 kts 54°
2026-04-21 10:32 53.87753 71.65211 28239 ft 420 kts 54°
2026-04-21 10:32 53.89337 71.69395 27730 ft 426 kts 54°
2026-04-21 10:33 53.90951 71.73660 27195 ft 432 kts 54°
2026-04-21 10:33 53.92563 71.77936 26640 ft 427 kts 54°
2026-04-21 10:33 53.94132 71.82109 26133 ft 420 kts 54°
2026-04-21 10:33 53.95688 71.86255 25619 ft 414 kts 54°
2026-04-21 10:34 53.97224 71.90355 25114 ft 408 kts 54°
2026-04-21 10:34 53.98734 71.94388 24616 ft 402 kts 54°
2026-04-21 10:34 54.00229 71.98384 24117 ft 398 kts 54°
2026-04-21 10:34 54.01703 72.02333 23616 ft 394 kts 54°
2026-04-21 10:35 54.03164 72.06251 23051 ft 390 kts 54°
2026-04-21 10:35 54.04608 72.10130 22508 ft 386 kts 54°
2026-04-21 10:35 54.06034 72.13968 21987 ft 381 kts 54°
2026-04-21 10:35 54.07439 72.17756 21496 ft 376 kts 54°
2026-04-21 10:36 54.08834 72.21521 21015 ft 376 kts 54°
2026-04-21 10:36 54.10239 72.25314 20532 ft 379 kts 54°
2026-04-21 10:36 54.11657 72.29147 20031 ft 385 kts 54°
2026-04-21 10:36 54.13089 72.33029 19521 ft 387 kts 54°
2026-04-21 10:37 54.14498 72.36822 19017 ft 380 kts 51°
2026-04-21 10:37 54.16153 72.40237 18523 ft 369 kts 40°
2026-04-21 10:37 54.18058 72.43049 18152 ft 354 kts 30°
2026-04-21 10:37 54.20087 72.45351 17655 ft 347 kts 27°
2026-04-21 10:38 54.22110 72.47539 17143 ft 342 kts 26°
2026-04-21 10:38 54.24110 72.49680 16688 ft 337 kts 26°
2026-04-21 10:38 54.26082 72.51801 16216 ft 335 kts 27°
2026-04-21 10:38 54.28069 72.53950 15747 ft 340 kts 27°
2026-04-21 10:39 54.30078 72.56136 15264 ft 345 kts 28°
2026-04-21 10:39 54.32099 72.58349 14784 ft 343 kts 28°
2026-04-21 10:39 54.34094 72.60546 14285 ft 337 kts 28°
2026-04-21 10:39 54.36051 72.62709 13810 ft 332 kts 28°
2026-04-21 10:40 54.37978 72.64841 13306 ft 327 kts 28°
2026-04-21 10:40 54.39881 72.66948 12788 ft 322 kts 28°
2026-04-21 10:40 54.41754 72.69024 12317 ft 318 kts 28°
2026-04-21 10:40 54.43598 72.71070 11843 ft 313 kts 28°
2026-04-21 10:41 54.45390 72.73059 11398 ft 310 kts 28°
2026-04-21 10:41 54.47213 72.75083 10952 ft 314 kts 28°
2026-04-21 10:41 54.49068 72.77142 10491 ft 321 kts 28°
2026-04-21 10:41 54.50941 72.79227 10170 ft 315 kts 29°
2026-04-21 10:42 54.52729 72.81229 10007 ft 299 kts 29°
2026-04-21 10:42 54.54441 72.83145 9838 ft 286 kts 29°
2026-04-21 10:42 54.56097 72.84993 9453 ft 282 kts 29°
2026-04-21 10:42 54.57734 72.86821 9106 ft 278 kts 29°
2026-04-21 10:43 54.59351 72.88630 8733 ft 275 kts 30°
2026-04-21 10:43 54.60951 72.90419 8385 ft 271 kts 29°
2026-04-21 10:43 54.62437 72.91796 8112 ft 265 kts 21°
2026-04-21 10:43 54.64119 72.93049 7775 ft 262 kts 19°
2026-04-21 10:44 54.65801 72.94246 7430 ft 260 kts 20°
2026-04-21 10:44 54.67464 72.95438 7108 ft 258 kts 20°
2026-04-21 10:44 54.69115 72.96636 6774 ft 257 kts 21°
2026-04-21 10:44 54.70787 72.97864 6449 ft 265 kts 21°
2026-04-21 10:45 54.72503 72.99133 6072 ft 269 kts 21°
2026-04-21 10:45 54.74210 73.00405 5707 ft 266 kts 21°
2026-04-21 10:45 54.75904 73.01672 5336 ft 263 kts 22°
2026-04-21 10:45 54.77551 73.02906 4992 ft 259 kts 22°
2026-04-21 10:46 54.79193 73.04140 4657 ft 256 kts 21°
2026-04-21 10:46 54.80842 73.05380 4315 ft 254 kts 21°
2026-04-21 10:46 54.82436 73.06555 4027 ft 249 kts 17°
2026-04-21 10:46 54.84099 73.06857 3919 ft 234 kts 351°
2026-04-21 10:47 54.85655 73.06330 3802 ft 222 kts 343°
2026-04-21 10:47 54.87105 73.05707 3793 ft 208 kts 342°
2026-04-21 10:47 54.88471 73.05122 3729 ft 195 kts 342°
2026-04-21 10:47 54.89739 73.04598 3673 ft 181 kts 342°
2026-04-21 10:48 54.90937 73.04079 3503 ft 175 kts 344°
2026-04-21 10:48 54.92122 73.04234 3349 ft 174 kts 24°
2026-04-21 10:48 54.93030 73.05570 3181 ft 171 kts 52°
2026-04-21 10:48 54.93498 73.07433 2965 ft 165 kts 79°
2026-04-21 10:49 54.93786 73.09307 2782 ft 158 kts 71°
2026-04-21 10:49 54.94103 73.11094 2565 ft 156 kts 77°
2026-04-21 10:49 54.94339 73.12891 2339 ft 152 kts 79°
2026-04-21 10:49 54.94566 73.14672 2129 ft 151 kts 81°
2026-04-21 10:50 54.94811 73.16502 1855 ft 157 kts 75°
2026-04-21 10:50 54.95052 73.18292 1632 ft 149 kts 80°
2026-04-21 10:50 54.95268 73.20013 1410 ft 143 kts 79°
2026-04-21 10:50 54.95492 73.21730 1213 ft 147 kts 78°
2026-04-21 10:51 54.95720 73.23461 1028 ft 144 kts 77°
2026-04-21 10:51 54.95928 73.25087 793 ft 132 kts 77°
2026-04-21 10:51 54.96125 73.26560 650 ft 118 kts 76°
2026-04-21 10:51 54.96311 73.27959 473 ft 118 kts 76°
2026-04-21 10:52 54.96499 73.29382 334 ft 121 kts 76°
2026-04-21 10:52 54.96663 73.30653 311 ft 89 kts 77°
2026-04-21 10:52 54.96769 73.31443 304 ft 45 kts 77°
2026-04-21 10:52 54.96827 73.31872 307 ft 31 kts 77°
2026-04-21 10:53 54.96838 73.32054 309 ft 6 kts 121°
2026-04-21 10:53 54.96798 73.32086 307 ft 7 kts 171°
2026-04-21 10:53 54.96742 73.32105 305 ft 9 kts 166°
2026-04-21 10:53 54.96677 73.32134 303 ft 10 kts 169°
2026-04-21 10:54 54.96601 73.32164 300 ft 12 kts 166°
2026-04-21 10:54 54.96513 73.32200 299 ft 14 kts 167°
2026-04-21 10:54 54.96446 73.32104 301 ft 14 kts 254°
2026-04-21 10:54 54.96421 73.31913 297 ft 19 kts 256°
2026-04-21 10:55 54.96368 73.31704 299 ft 19 kts 205°
2026-04-21 10:55 54.96290 73.31780 298 ft 11 kts 89°
2026-04-21 10:55 54.96326 73.31865 297 ft 8 kts 46°
2026-04-21 10:55 54.96330 73.31908 297 ft 2 kts 120°
2026-04-21 10:56 54.96311 73.31935 298 ft 5 kts 146°
2026-04-21 10:56 54.96304 73.31947 298 ft 0 kts 134°